Flag for Austria

Past Weather in Graz, Styria, Austria — Yesterday and Last 2 Weeks

Now
64 °F

Mild.


Feels Like: 64 °F
Forecast: 78 / 55 °F
Wind: 1 mph from North

Location: Graz-Thalerhof-Flughafen

Current Time: Jul 3, 2020 at 10:41:41 pm

Latest Report: Jul 3, 2020 at 9:50 pm


Visibility: N/A

Pressure: 30.07 "Hg

Humidity: 83%

Dew Point: 59 °F

Location of GrazLocation

Past Weather in Graz — Graph

°F

Graz Temperature Yesterday

Maximum temperature yesterday: 82 °F (at 11:50 am)
Minimum temperature yesterday: 59 °F (at 2:50 am)
Average temperature yesterday: 71 °F

High & Low Weather Summary for the Past Weeks

 TemperatureHumidityPressure
High84 °F (Jun 27, 2:50 pm)100% (Jun 21, 4:20 am)30.24 "Hg (Jun 21, 4:20 am)
Low52 °F (Jun 24, 3:50 am)28% (Jun 23, 2:50 pm)29.83 "Hg (Jun 29, 11:20 am)
Average67 °F72%30.01 "Hg
* Reported Jun 18 9:20 pm — Jul 3 9:20 pm, Graz. Weather by CustomWeather, © 2020

Note: Actual official high and low records may vary slightly from our data, if they occured in-between our weather recording intervals... More about our weather records

Graz Weather History for the Previous 24 Hours

Scroll right to see more
 ConditionsComfort  
Time TempWeatherWind HumidityBarometerVisibility
9:20 pm
Fri, Jul 3
66 °FMild.3 mph83%30.07 "HgN/A
8:50 pm66 °FMild.2 mph83%30.04 "HgN/A
8:20 pm70 °FMild.2 mph69%30.04 "HgN/A
7:50 pm70 °FMild.3 mph69%30.04 "HgN/A
7:20 pm72 °FMild.5 mph65%30.01 "HgN/A
6:50 pm72 °FMild.3 mph69%30.01 "HgN/A
6:20 pm72 °FClear.5 mph69%30.01 "HgN/A
5:50 pm72 °FClear.5 mph69%30.01 "HgN/A
5:20 pm70 °FPassing clouds.5 mph73%30.01 "HgN/A
4:50 pm70 °FPassing clouds.3 mph69%30.01 "HgN/A
4:20 pm68 °FPassing clouds.3 mph83%30.01 "HgN/A
3:50 pm66 °FPassing clouds.5 mph83%30.04 "HgN/A
2:50 pm66 °FPassing clouds.6 mph88%30.04 "HgN/A
2:20 pm64 °FSprinkles. Passing clouds.5 mph94%30.04 "HgN/A
1:50 pm64 °FPassing clouds.2 mph83%30.04 "HgN/A
1:20 pm64 °FSprinkles. Passing clouds.3 mph88%30.04 "HgN/A
12:50 pm64 °FPassing clouds.3 mph88%30.04 "HgN/A
12:20 pm64 °FSprinkles. Passing clouds.3 mph88%30.04 "HgN/A
11:50 am64 °FSprinkles. Passing clouds.3 mph88%30.04 "HgN/A
11:20 am64 °FSprinkles. Passing clouds.3 mph83%30.04 "HgN/A
10:50 am64 °FSprinkles. Passing clouds.5 mph83%30.01 "HgN/A
10:20 am63 °FSprinkles. Passing clouds.3 mph94%30.01 "HgN/A
9:50 am63 °FPassing clouds.7 mph88%30.01 "HgN/A
9:20 am63 °FLight rain. Passing clouds.3 mph88%30.01 "HgN/A
8:50 am63 °FLight rain. Passing clouds.6 mph88%29.98 "HgN/A
8:20 am63 °FLight rain. Partly sunny.3 mph88%29.98 "HgN/A
7:50 am63 °FLight rain. Partly sunny.2 mph88%29.98 "HgN/A
7:20 am63 °FLight rain. Partly sunny.3 mph88%29.98 "HgN/A
6:50 am63 °FLight rain. Partly sunny.3 mph88%29.98 "HgN/A
6:20 am63 °FRain. Scattered clouds.6 mph88%29.95 "HgN/A
5:50 am64 °FRain. Overcast.6 mph88%29.95 "Hg5 mi
5:20 am64 °FLight rain. Broken clouds.6 mph88%29.95 "HgN/A
4:50 am66 °FRain showers. Passing clouds.3 mph83%29.92 "HgN/A
4:20 am66 °FSprinkles. Passing clouds.6 mph83%29.92 "HgN/A
3:20 am66 °FRain. Overcast.6 mph83%29.89 "HgN/A
2:50 am68 °FPassing clouds.6 mph73%29.92 "HgN/A
2:20 am68 °FPassing clouds.2 mph78%29.89 "HgN/A
1:50 am68 °FPassing clouds.6 mph73%29.89 "HgN/A
1:20 am68 °FMild.6 mph73%29.89 "HgN/A
12:50 am70 °FMild.3 mph69%29.89 "HgN/A
12:20 am70 °FClear.2 mph69%29.89 "HgN/A
11:50 pm
Thu, Jul 2
72 °FPassing clouds.8 mph61%29.89 "HgN/A
11:20 pm72 °FPassing clouds.6 mph61%29.89 "HgN/A
10:50 pm72 °FPassing clouds.6 mph61%29.89 "HgN/A
10:20 pm72 °FPassing clouds.3 mph65%29.89 "HgN/A
Weather by CustomWeather, © 2020

See weather overview